GW0245 Weather Reports


Display with metric or nautical units.
time (UTC)temp
F
wind
direction
speed
MPH
gust
MPH
rain 1hr
in
rain 24hr
in
rain mn
in
humidity
%
barometer
mb
20260507051558 63 281 1.0 3.0 0.00 0.00 0.00 31 1017.2
20260507050059 64 0 0.0 1.0 0.00 0.00 0.00 31 1017.1
20260507044559 65 0 0.0 3.0 0.00 0.00 0.00 29 1016.9
20260507043057 67 279 2.0 5.0 0.00 0.00 0.00 28 1016.6
20260507041603 68 309 1.0 7.0 0.00 0.00 0.00 27 1016.3
20260507040059 68 267 2.0 9.0 0.00 0.00 0.00 26 1016.0
20260507034600 68 5 2.0 8.0 0.00 0.00 0.00 26 1015.6
20260507033059 69 0 0.0 6.0 0.00 0.00 0.00 26 1015.2
20260507031555 71 226 3.0 8.0 0.00 0.00 0.00 23 1014.9
20260507030101 72 259 4.0 11.0 0.00 0.00 0.00 22 1014.4
20260507024557 71 240 5.0 12.0 0.00 0.00 0.00 23 1014.2
20260507023055 71 252 3.0 7.0 0.00 0.00 0.00 23 1014.0
20260507021627 72 240 4.0 9.0 0.00 0.00 0.00 23 1013.8
20260507020110 72 242 3.0 10.0 0.00 0.00 0.00 23 1013.7
20260507014623 73 258 7.0 13.0 0.00 0.00 0.00 22 1013.7
20260507013101 75 206 3.0 8.0 0.00 0.00 0.00 20 1013.7
20260507011600 75 180 5.0 12.0 0.00 0.00 0.00 21 1013.5
20260507010055 75 182 2.0 10.0 0.00 0.00 0.00 21 1013.6
20260507004558 75 197 4.0 9.0 0.00 0.00 0.00 21 1013.5
20260507003054 77 120 4.0 12.0 0.00 0.00 0.00 19 1013.4
20260507001606 78 140 4.0 13.0 0.00 0.00 0.00 18 1013.3
20260507000123 78 128 2.0 11.0 0.00 0.00 0.00 18 1013.3
20260506234618 79 50 5.0 10.0 0.00 0.00 0.00 18 1013.2
20260506233059 79 109 3.0 13.0 0.00 0.00 0.00 18 1013.2
20260506231556 78 106 5.0 10.0 0.00 0.00 0.00 19 1013.2
20260506230103 79 75 6.0 12.0 0.00 0.00 0.00 19 1013.3
20260506224556 80 94 4.0 10.0 0.00 0.00 0.00 18 1013.4
20260506223100 80 177 3.0 9.0 0.00 0.00 0.00 18 1013.5
20260506221603 80 0 2.0 9.0 0.00 0.00 0.00 18 1013.9
20260506220056 78 165 3.0 9.0 0.00 0.00 0.00 18 1014.0
20260506214558 79 202 2.0 9.0 0.00 0.00 0.00 19 1014.4
20260506213056 76 9 3.0 12.0 0.00 0.00 0.00 19 1014.7
20260506211556 76 134 4.0 11.0 0.00 0.00 0.00 19 1014.9
20260506210055 77 25 3.0 11.0 0.00 0.00 0.00 19 1015.2
20260506204556 76 182 2.0 11.0 0.00 0.00 0.00 20 1015.3
20260506203054 76 55 1.0 10.0 0.00 0.00 0.00 20 1015.4
20260506201552 75 105 3.0 8.0 0.00 0.00 0.00 22 1015.4
20260506200100 75 175 2.0 13.0 0.00 0.00 0.00 22 1015.6
20260506194556 73 331 1.0 9.0 0.00 0.00 0.00 23 1015.9
20260506193059 74 137 2.0 9.0 0.00 0.00 0.00 23 1016.1
20260506191604 72 33 3.0 8.0 0.00 0.00 0.00 24 1016.3
20260506190059 71 29 4.0 7.0 0.00 0.00 0.00 25 1016.5
20260506184558 71 342 4.0 10.0 0.00 0.00 0.00 25 1016.7
20260506183102 69 87 4.0 9.0 0.00 0.00 0.00 27 1017.0
20260506181604 70 115 3.0 9.0 0.00 0.00 0.00 27 1017.2
20260506180059 68 105 4.0 9.0 0.00 0.00 0.00 28 1017.2
20260506174554 68 86 1.0 8.0 0.00 0.00 0.00 29 1017.2
20260506173123 66 143 3.0 9.0 0.00 0.00 0.00 31 1017.3
20260506171556 66 86 2.0 8.0 0.00 0.00 0.00 30 1017.4
20260506170109 64 0 4.0 11.0 0.00 0.00 0.00 32 1017.5
20260506164555 63 0 2.0 7.0 0.00 0.00 0.00 32 1017.5
20260506163059 62 73 2.0 7.0 0.00 0.00 0.00 33 1017.6
20260506161555 61 101 2.0 8.0 0.00 0.00 0.00 35 1017.6
20260506160055 61 103 2.0 7.0 0.00 0.00 0.00 36 1017.6
20260506154610 60 88 1.0 5.0 0.00 0.00 0.00 37 1017.7
20260506153059 59 68 0.0 6.0 0.00 0.00 0.00 38 1017.6
20260506151558 58 0 2.0 5.0 0.00 0.00 0.00 38 1017.7
20260506150057 57 33 1.0 4.0 0.00 0.00 0.00 40 1017.8
20260506144559 57 0 1.0 3.0 0.00 0.00 0.00 40 1017.6
20260506143058 56 79 0.0 3.0 0.00 0.00 0.00 42 1017.5
20260506141602 55 0 0.0 2.0 0.00 0.00 0.00 43 1017.5
20260506140109 53 100 0.0 2.0 0.00 0.00 0.00 45 1017.5
20260506134556 52 0 0.0 1.0 0.00 0.00 0.00 47 1017.4
20260506133126 50 0 0.0 1.0 0.00 0.00 0.00 49 1017.1
20260506131558 47 0 0.0 0.0 0.00 0.00 0.00 54 1016.9
20260506130122 44 0 0.0 0.0 0.00 0.00 0.00 58 1016.8
20260506124554 43 0 0.0 0.0 0.00 0.00 0.00 58 1016.5
20260506123054 44 0 0.0 0.0 0.00 0.00 0.00 56 1016.5
20260506121555 45 0 0.0 2.0 0.00 0.00 0.00 56 1016.1
20260506120058 45 239 2.0 4.0 0.00 0.00 0.00 55 1015.9
20260506114604 45 0 0.0 4.0 0.00 0.00 0.00 55 1016.0
20260506113055 44 0 0.0 0.0 0.00 0.00 0.00 56 1016.0
20260506111556 45 249 1.0 3.0 0.00 0.00 0.00 55 1016.0
20260506110054 46 259 0.0 4.0 0.00 0.00 0.00 53 1015.7
20260506104614 45 209 2.0 4.0 0.00 0.00 0.00 56 1015.6
20260506103055 44 0 0.0 3.0 0.00 0.00 0.00 56 1015.6
20260506101557 44 248 0.0 2.0 0.00 0.00 0.00 56 1015.4
20260506100054 46 0 0.0 2.0 0.00 0.00 0.00 54 1015.4
20260506094553 47 259 0.0 2.0 0.00 0.00 0.00 51 1015.2
20260506093055 49 0 0.0 0.0 0.00 0.00 0.00 50 1015.2
20260506091556 49 215 0.0 3.0 0.00 0.00 0.00 50 1015.0
20260506090055 49 0 0.0 4.0 0.00 0.00 0.00 50 1015.0
20260506084555 48 225 0.0 4.0 0.00 0.00 0.00 51 1014.9
20260506083055 50 0 1.0 2.0 0.00 0.00 0.00 49 1014.8
20260506081600 51 0 0.0 2.0 0.00 0.00 0.00 47 1014.7
20260506080104 51 0 1.0 4.0 0.00 0.00 0.00 45 1014.7
20260506073057 52 227 1.0 4.0 0.00 0.00 0.00 46 1014.7
20260506071617 51 242 2.0 5.0 0.00 0.00 0.00 47 1014.7
20260506061556 52 0 0.0 1.0 0.00 0.00 0.00 44 1014.3